Wetbulb
57.94 56.93 56.30 55.51 55.12 55.42 55.58 55.53 55.21 55.30 55.86 56.10 56.15 56.07 55.83 55.67 55.79 55.89 56.11 56.39 57.10 57.88 58.26 58.01 58.20 58.48 50.12 41.00 42.41 55.75 59.15 56.39 52.96 51.20 48.21 45.95 42.01 38.84 36.40 37.17 39.36 37.01 38.29 41.44 42.47 42.70 41.79
56.36 55.53 54.89 54.75 54.91 55.01 54.76 54.74 54.60 54.67 55.03 55.29 55.34 55.01 54.81 54.76 54.91 55.13 55.39 55.80 56.71 57.58 57.96 57.36 58.14 57.20 46.01 34.83 52.69 57.09 52.27 51.72 51.08 49.25 47.20 46.66 43.28 43.14 39.03 39.01 37.70 39.23 40.55 41.12 42.12 41.36 41.47
55.25 54.72 54.11 54.08 53.87 54.16 54.28 54.16 53.90 54.07 54.43 54.68 54.55 54.18 53.94 54.05 54.30 54.66 54.93 55.41 56.67 57.45 57.47 56.95 57.34 52.49 42.59 40.03 51.31 52.98 51.13 49.14 49.79 48.92 46.39 47.82 46.90 40.65 42.14 37.95 42.16 40.83 37.39 38.80 38.78 39.82 39.86
53.89 53.43 53.40 53.65 53.50 53.63 53.71 53.49 53.41 53.59 53.85 53.87 53.75 53.42 53.30 53.41 53.75 54.01 54.30 55.20 56.66 57.27 56.00 56.84 55.93 47.36 36.92 48.91 51.80 50.91 50.28 48.82 50.09 50.85 49.94 49.21 48.41 44.34 40.85 42.78 39.59 36.79 35.34 31.21 35.72 39.95 39.79
52.91 52.61 53.02 52.99 53.14 53.21 53.14 52.95 52.91 53.08 53.31 53.23 52.99 52.83 52.80 52.90 53.07 53.40 53.97 55.80 56.41 55.36 55.59 55.60 46.58 42.24 36.60 52.63 47.47 49.88 49.21 47.59 48.56 49.14 49.83 51.72 47.16 42.11 42.15 34.68 30.05 30.66 26.94 28.78 33.24 38.86 37.36
52.06 52.39 52.24 52.39 52.45 52.38 52.62 52.73 52.73 52.87 52.91 52.64 52.35 52.18 52.36 52.55 52.72 53.14 54.67 55.08 54.51 53.46 52.32 51.73 47.81 37.13 41.13 40.92 45.99 48.56 48.68 49.07 45.78 45.81 43.67 44.63 40.55 35.73 35.20 30.46 25.13 25.99 27.62 29.04 29.98 33.10 35.34
51.74 51.68 51.72 51.58 51.66 51.97 52.32 52.44 52.29 52.31 52.21 51.93 51.68 51.68 52.20 52.48 53.10 54.36 51.36 40.01 38.08 35.88 40.02 36.87 36.94 38.45 41.95 45.87 47.39 46.02 47.64 45.83 44.77 40.70 33.14 39.76 33.67 30.35 32.96 34.63 31.49 30.17 27.40 27.44 31.27 34.93 33.18
50.94 51.08 50.95 51.16 51.39 51.69 51.77 51.67 51.69 51.79 51.73 51.56 51.35 51.90 52.72 53.39 54.16 54.16 45.27 41.52 40.74 40.65 35.07 40.88 41.86 41.54 43.44 44.67 40.00 42.94 46.94 38.83 38.33 32.31 36.57 33.72 30.83 34.36 36.70 35.60 34.85 33.06 29.62 30.27 32.97 34.29 33.36
50.39 50.32 50.72 51.02 51.29 51.19 51.04 51.22 51.44 51.53 51.39 51.16 51.35 52.17 53.25 53.55 53.33 48.10 44.99 43.59 47.55 45.26 34.53 37.13 42.72 41.26 41.68 43.23 39.04 39.72 44.17 40.56 36.42 33.60 34.12 30.72 32.54 37.27 35.96 33.82 32.16 30.46 29.77 28.39 30.44 31.13 31.94
49.65 50.06 50.53 50.84 50.53 50.54 50.69 50.81 50.86 50.97 50.77 50.82 51.61 52.41 53.34 52.49 45.38 43.88 43.64 47.97 47.96 45.37 28.46 32.88 38.80 41.34 42.64 41.79 36.83 45.11 45.17 40.72 36.75 33.62 33.28 33.12 36.60 35.65 33.49 32.88 32.77 27.04 33.08 32.84 30.45 27.88 23.20
49.34 49.75 50.02 49.79 50.00 50.08 50.20 50.12 50.15 50.32 50.46 50.74 51.76 52.66 53.27 50.61 42.19 43.20 45.92 47.71 47.01 38.86 16.91 34.27 38.33 45.63 42.95 38.18 39.01 39.88 44.78 40.51 34.81 34.16 32.99 32.12 31.46 31.83 32.28 34.10 34.40 31.81 33.21 31.22 29.63 26.73 23.88
49.03 49.57 49.20 49.49 49.59 49.54 49.42 49.53 49.70 49.95 50.23 50.54 51.49 52.38 51.40 46.90 44.68 45.05 47.02 46.52 40.13 27.66 15.51 32.28 37.95 36.81 35.49 37.13 37.75 40.23 39.98 41.39 39.57 35.15 34.04 33.40 35.97 35.30 34.76 35.45 35.42 34.96 31.39 29.99 27.54 25.63 19.25
48.80 48.61 49.12 49.17 48.99 48.82 48.96 49.11 49.34 49.51 49.94 50.41 51.19 51.81 49.43 47.44 40.37 45.87 45.75 37.93 26.03 19.46 31.63 30.49 31.30 34.11 31.54 31.11 34.38 36.13 34.76 32.91 31.25 26.22 25.49 29.56 31.48 35.03 36.06 31.89 33.01 31.95 27.41 20.45 18.45 18.37 19.53
48.26 48.46 48.45 48.50 48.41 48.46 48.72 49.02 49.15 49.20 49.71 50.20 50.57 49.45 48.05 47.42 44.95 45.50 37.62 30.13 20.47 26.21 27.57 34.28 33.36 32.32 27.33 30.96 30.98 31.86 31.78 29.66 32.89 29.96 25.49 23.51 22.85 31.14 34.95 32.87 29.39 28.77 27.65 21.50 17.22 15.24 20.96
47.64 47.89 47.85 47.74 47.76 48.26 48.54 48.75 48.79 48.80 49.35 49.83 48.14 42.79 41.11 43.28 45.67 42.39 32.32 20.65 21.71 27.71 32.42 31.63 30.58 24.95 25.28 28.92 27.78 27.79 25.85 27.91 29.55 31.49 25.92 24.80 25.57 32.72 34.34 34.14 34.41 28.39 25.77 29.76 24.26 19.72 16.31
47.52 47.44 47.26 47.08 47.63 47.80 48.12 48.35 48.37 48.57 49.12 48.85 39.85 38.75 38.75 41.96 44.59 35.90 28.09 27.11 29.21 33.86 33.87 32.28 25.36 26.34 22.30 25.76 25.99 24.83 23.12 26.73 27.09 31.50 30.30 27.25 22.40 29.84 31.93 32.84 33.29 31.06 31.65 23.53 23.38 17.49 16.13
47.38 46.88 46.69 46.85 47.13 47.25 47.55 47.90 47.93 48.50 48.75 47.38 37.00 34.02 39.90 39.11 40.14 32.35 22.83 25.94 31.82 35.61 34.10 30.21 27.37 26.79 25.25 25.14 25.66 24.32 24.36 24.33 26.91 27.56 28.87 27.43 24.24 26.28 28.56 27.20 27.51 27.27 26.98 27.05 25.64 22.95 19.99
46.47 46.43 46.41 46.71 46.79 46.85 47.10 47.18 47.34 47.96 47.87 41.31 31.59 27.19 39.25 38.87 31.33 27.53 26.85 29.06 34.69 30.47 31.02 31.98 31.76 29.83 26.21 27.12 23.81 24.43 24.51 23.55 27.89 28.67 22.39 25.99 25.43 21.47 25.09 31.71 31.90 29.49 26.97 27.08 22.71 20.51 21.56
46.05 45.83 46.25 46.37 46.49 46.47 46.74 46.60 46.74 47.21 46.71 35.74 30.90 30.13 35.44 34.80 23.97 22.35 24.86 27.47 28.89 27.73 26.19 27.16 28.00 27.63 26.89 24.87 22.48 25.18 24.20 28.05 27.97 27.67 24.29 27.24 22.47 18.13 20.64 24.69 26.89 24.43 26.62 26.93 26.27 24.51 20.55
45.63 45.59 45.74 46.17 46.16 46.21 46.43 46.21 46.03 46.29 45.68 34.36 27.84 24.50 26.25 27.47 24.85 21.89 21.56 24.27 24.83 28.73 26.37 26.85 24.52 25.21 22.57 20.57 25.03 22.03 21.27 26.15 27.01 26.24 32.19 27.69 22.31 20.75 16.54 20.86 22.40 19.30 22.47 26.16 27.52 24.19 21.74
45.14 45.51 45.59 45.84 45.93 45.97 46.11 45.91 45.53 45.52 43.81 32.37 25.84 23.06 24.77 19.59 22.50 21.88 22.46 23.63 22.68 22.02 25.27 25.02 23.18 22.49 20.93 17.61 18.49 17.91 20.89 22.07 23.96 27.64 23.83 21.96 14.86 17.15 18.54 19.57 20.28 19.92 20.37 21.64 20.74 23.97 23.43
45.32 45.74 45.19 45.18 45.31 45.48 45.57 45.44 45.16 44.97 41.42 30.38 24.36 23.67 23.95 21.95 22.71 20.56 22.61 20.34 21.99 22.59 22.41 22.35 21.23 21.71 19.37 18.14 18.72 16.97 18.73 17.94 17.54 20.72 19.17 21.73 16.28 18.04 14.37 18.58 18.45 16.75 19.49 21.32 23.86 24.67 22.38
45.87 44.91 44.54 44.48 44.74 45.03 45.11 45.11 44.87 44.59 38.33 28.90 28.33 28.01 24.10 23.29 19.88 19.18 18.93 20.33 22.76 23.84 24.54 25.03 21.96 19.51 19.46 22.12 22.70 23.83 23.51 23.31 22.11 19.52 17.56 17.96 17.56 15.52 11.15 16.81 16.33 11.87 17.69 20.57 21.17 23.08 22.09
44.95 44.33 44.13 44.02 44.11 44.77 44.82 44.96 44.54 44.39 39.39 31.41 28.87 25.81 22.04 19.53 21.03 22.05 23.12 23.57 23.08 23.05 20.98 23.50 21.95 20.16 24.02 26.66 25.47 23.64 20.85 21.39 20.68 19.91 21.98 17.22 16.75 18.45 11.95 14.43 4.54 17.72 23.54 23.83 18.85 18.01 19.61
44.53 43.96 44.39 44.03 43.68 44.64 44.86 44.96 44.51 44.23 42.70 32.34 29.97 26.84 22.77 18.60 22.85 22.38 21.95 22.11 21.12 21.00 21.03 22.84 24.07 25.74 26.17 23.53 18.68 16.30 15.50 16.42 16.96 19.55 20.58 21.67 16.03 15.05 12.05 11.27 15.20 15.76 19.56 19.10 18.03 13.82 17.47
44.03 43.70 44.32 43.69 43.05 43.85 44.07 43.96 44.25 44.03 43.41 33.78 31.57 29.48 25.53 20.60 19.70 24.39 21.23 20.55 17.72 15.46 17.97 22.40 25.87 26.82 25.13 22.57 19.84 13.00 10.45 13.35 12.43 15.61 20.21 20.86 18.47 13.46 12.46 7.72 7.23 11.39 17.23 20.75 21.42 11.59 16.78
43.91 44.13 44.03 43.39 43.06 44.09 43.89 43.87 43.52 43.86 43.28 35.07 32.50 32.18 27.43 19.25 22.71 22.10 19.81 19.62 22.47 19.68 18.28 20.57 22.05 23.27 24.77 20.39 16.63 13.70 11.90 15.07 10.39 10.28 11.57 12.36 10.81 7.12 10.51 8.74 11.19 14.11 17.42 20.43 8.70 7.75 16.19
43.67 43.54 43.17 42.97 42.64 42.69 43.65 43.56 43.13 43.50 43.10 36.16 32.51 34.11 28.79 18.43 23.99 25.66 26.64 22.77 23.50 22.09 17.63 20.62 19.10 19.44 18.68 16.60 16.60 13.99 11.55 13.19 12.16 13.67 12.43 11.15 9.65 6.94 7.16 1.56 1.10 16.22 16.45 9.48 11.76 15.20 15.56
43.28 42.92 42.33 42.48 42.36 41.66 42.82 43.18 43.52 44.26 43.84 39.02 30.44 34.99 38.51 31.80 25.24 28.88 30.21 30.40 29.22 28.20 24.88 20.93 18.97 20.08 21.32 15.43 15.25 20.20 16.29 14.14 13.51 10.63 15.43 11.12 11.10 10.68 11.52 10.75 15.06 17.67 15.19 16.74 15.96 13.20 14.27
MSLP
1021.93 1021.99 1021.93 1021.77 1021.62 1021.37 1021.12 1020.87 1020.63 1020.33 1019.88 1019.38 1019.00 1018.63 1018.26 1017.86 1017.44 1017.05 1016.66 1016.32 1015.99 1015.64 1015.31 1015.04 1014.85 1014.71 1014.52 1014.50 1014.14 1013.58 1013.40 1013.32 1013.18 1013.19 1013.56 1013.62 1013.83 1014.23 1014.55 1014.70 1014.79 1014.88 1014.66 1014.41 1014.12 1014.14 1014.09
1022.18 1022.23 1022.13 1021.94 1021.69 1021.46 1021.24 1020.98 1020.67 1020.36 1019.95 1019.46 1019.02 1018.62 1018.20 1017.78 1017.37 1016.97 1016.58 1016.18 1015.80 1015.45 1015.12 1014.89 1014.81 1014.74 1014.53 1014.49 1013.80 1013.61 1013.68 1013.64 1013.70 1013.75 1014.01 1014.08 1014.38 1014.54 1014.70 1014.91 1015.11 1015.09 1014.87 1014.47 1014.11 1013.99 1013.94
1022.42 1022.38 1022.20 1022.02 1021.81 1021.59 1021.33 1021.02 1020.74 1020.42 1019.98 1019.50 1019.02 1018.58 1018.13 1017.69 1017.29 1016.87 1016.45 1016.00 1015.58 1015.22 1014.97 1014.82 1014.72 1014.72 1014.70 1014.37 1013.98 1013.73 1013.60 1013.84 1013.87 1013.97 1014.35 1014.55 1014.59 1014.60 1014.88 1015.12 1015.18 1015.24 1015.26 1014.49 1013.91 1013.75 1013.80
1022.71 1022.54 1022.32 1022.07 1021.91 1021.64 1021.35 1021.07 1020.80 1020.43 1019.95 1019.41 1018.94 1018.50 1018.03 1017.58 1017.16 1016.68 1016.21 1015.68 1015.28 1015.04 1014.92 1014.78 1014.71 1014.88 1014.38 1014.03 1013.96 1013.91 1013.89 1014.00 1014.03 1014.04 1014.24 1014.43 1014.55 1014.96 1015.21 1015.48 1015.49 1015.55 1015.60 1015.13 1013.98 1013.90 1013.62
1022.98 1022.72 1022.46 1022.28 1021.97 1021.71 1021.42 1021.15 1020.85 1020.39 1019.86 1019.32 1018.79 1018.35 1017.92 1017.43 1016.96 1016.45 1015.83 1015.30 1014.94 1014.91 1014.97 1014.99 1015.08 1014.74 1014.38 1013.97 1014.02 1013.92 1013.95 1014.19 1014.25 1014.38 1014.40 1014.46 1014.68 1015.33 1015.57 1015.81 1016.06 1016.19 1016.02 1015.61 1014.52 1013.70 1013.79
1023.12 1022.91 1022.63 1022.35 1022.09 1021.82 1021.54 1021.16 1020.81 1020.35 1019.81 1019.28 1018.77 1018.32 1017.83 1017.28 1016.73 1016.07 1015.55 1015.17 1015.00 1014.95 1015.06 1014.97 1015.00 1015.35 1014.55 1014.24 1014.05 1014.15 1014.26 1014.29 1014.57 1014.71 1014.92 1015.09 1015.61 1015.86 1016.30 1016.29 1016.25 1016.07 1016.08 1015.69 1015.22 1014.17 1014.18
1023.19 1023.05 1022.82 1022.54 1022.20 1021.86 1021.51 1021.16 1020.79 1020.32 1019.76 1019.28 1018.80 1018.23 1017.61 1016.94 1016.32 1015.84 1015.36 1015.32 1015.82 1015.79 1015.42 1015.62 1015.53 1015.13 1014.75 1014.41 1014.18 1014.42 1014.41 1014.52 1014.79 1015.24 1015.55 1015.76 1016.27 1015.98 1015.62 1015.62 1015.48 1015.60 1015.77 1015.68 1014.81 1014.17 1014.42
1023.18 1023.11 1022.95 1022.70 1022.33 1021.92 1021.55 1021.20 1020.76 1020.28 1019.75 1019.22 1018.69 1018.05 1017.39 1016.82 1016.24 1015.64 1015.67 1016.87 1017.72 1018.06 1016.75 1015.72 1015.50 1015.28 1014.84 1014.62 1014.53 1014.67 1014.65 1015.05 1015.26 1015.69 1016.03 1016.26 1015.82 1015.08 1015.03 1015.18 1015.42 1015.71 1015.88 1015.52 1014.77 1014.31 1014.68
1023.43 1023.28 1023.07 1022.73 1022.41 1022.07 1021.71 1021.24 1020.72 1020.20 1019.71 1019.19 1018.58 1017.94 1017.20 1016.52 1016.07 1016.21 1017.04 1017.91 1017.88 1017.76 1017.53 1015.87 1015.23 1014.95 1014.81 1014.73 1014.69 1014.85 1014.95 1015.27 1015.66 1016.06 1016.21 1016.37 1015.25 1015.00 1014.98 1015.04 1015.37 1015.50 1015.54 1015.20 1015.03 1014.78 1014.70
1023.37 1023.29 1023.10 1022.89 1022.59 1022.22 1021.77 1021.32 1020.72 1020.18 1019.69 1019.14 1018.49 1017.89 1017.18 1016.42 1016.45 1017.40 1017.71 1017.86 1017.72 1017.68 1017.44 1016.26 1015.22 1014.91 1014.80 1014.80 1015.02 1014.93 1014.88 1015.25 1015.63 1016.00 1016.19 1016.14 1015.19 1014.97 1014.93 1014.97 1014.99 1015.07 1014.40 1014.68 1015.15 1015.77 1015.88
1023.45 1023.33 1023.12 1022.99 1022.69 1022.27 1021.83 1021.35 1020.76 1020.18 1019.64 1019.05 1018.36 1017.76 1017.28 1016.66 1017.38 1017.84 1018.23 1017.80 1017.58 1017.62 1017.47 1016.40 1015.32 1014.87 1014.93 1015.31 1015.47 1015.36 1015.27 1015.33 1015.69 1015.95 1016.38 1015.52 1014.98 1014.70 1014.59 1014.14 1014.35 1014.11 1014.26 1014.83 1015.37 1016.02 1016.20
1023.41 1023.53 1023.33 1022.98 1022.66 1022.25 1021.84 1021.39 1020.83 1020.22 1019.59 1018.95 1018.31 1017.81 1017.48 1017.56 1017.76 1018.12 1017.91 1017.78 1017.78 1018.15 1017.80 1016.74 1015.83 1015.44 1015.63 1015.52 1015.63 1015.78 1015.74 1015.72 1015.95 1016.27 1016.24 1015.74 1014.97 1014.73 1013.72 1013.33 1013.64 1013.86 1014.34 1015.24 1016.23 1016.73 1016.64
1023.37 1023.36 1023.45 1023.18 1022.79 1022.31 1021.81 1021.29 1020.72 1020.11 1019.51 1018.88 1018.28 1017.95 1017.72 1017.98 1018.46 1018.03 1017.97 1017.99 1018.85 1018.52 1018.05 1017.74 1017.13 1016.63 1016.73 1016.46 1016.25 1016.37 1016.51 1016.62 1016.92 1017.06 1016.79 1016.06 1015.02 1013.87 1013.65 1013.73 1013.79 1014.15 1015.09 1016.42 1016.85 1017.37 1016.14
1023.95 1023.43 1023.27 1023.21 1023.02 1022.50 1021.90 1021.21 1020.61 1020.03 1019.26 1018.69 1018.28 1018.09 1018.31 1018.35 1018.33 1018.15 1018.18 1018.58 1019.42 1019.50 1019.10 1018.66 1018.07 1017.57 1017.41 1017.29 1017.08 1017.17 1017.60 1018.03 1017.86 1018.14 1018.06 1017.28 1015.07 1014.08 1013.66 1013.52 1013.62 1014.29 1014.95 1015.82 1016.20 1016.49 1015.94
1023.87 1023.63 1023.36 1023.05 1022.89 1022.62 1021.98 1021.31 1020.56 1019.93 1019.19 1018.53 1018.16 1018.43 1018.57 1018.36 1018.10 1018.25 1018.71 1019.55 1020.09 1020.05 1019.83 1019.55 1018.84 1018.78 1018.56 1018.35 1018.43 1018.26 1018.72 1019.40 1019.51 1019.37 1019.57 1018.38 1016.20 1014.58 1013.99 1013.62 1013.69 1014.18 1014.59 1014.37 1015.28 1015.75 1015.95
1024.40 1023.84 1023.44 1023.23 1022.86 1022.43 1022.06 1021.42 1020.58 1019.93 1019.15 1018.64 1018.88 1019.04 1018.98 1018.52 1018.22 1018.68 1019.42 1020.71 1020.79 1020.60 1020.50 1020.32 1020.25 1019.99 1020.06 1019.87 1019.86 1019.75 1019.92 1021.56 1021.24 1021.12 1020.94 1019.70 1017.95 1015.27 1014.38 1013.91 1013.65 1013.86 1014.06 1014.74 1015.36 1015.54 1015.20
1024.43 1024.36 1023.64 1023.29 1023.00 1022.58 1021.88 1021.32 1020.54 1019.89 1019.10 1018.85 1019.30 1019.56 1018.93 1018.57 1018.49 1019.38 1021.05 1021.81 1021.48 1021.32 1021.44 1021.46 1021.35 1021.39 1021.59 1021.78 1021.78 1021.74 1021.59 1023.11 1022.68 1022.18 1021.67 1021.44 1020.29 1016.76 1015.86 1015.06 1014.47 1014.71 1014.46 1014.59 1014.76 1014.78 1014.59
1024.36 1024.62 1023.99 1023.48 1023.01 1022.72 1022.07 1021.34 1020.75 1019.91 1019.25 1019.10 1020.07 1020.59 1019.46 1018.85 1020.07 1021.93 1022.62 1022.75 1022.62 1022.60 1022.46 1022.33 1022.24 1022.68 1023.07 1023.10 1022.93 1022.86 1022.93 1023.58 1023.83 1023.53 1023.68 1023.01 1021.74 1019.50 1017.40 1015.78 1015.36 1015.10 1014.80 1014.79 1015.05 1014.64 1014.35
1024.44 1024.46 1024.24 1023.62 1023.19 1022.79 1022.30 1021.59 1020.90 1020.16 1019.64 1020.08 1021.34 1021.50 1020.11 1019.90 1022.12 1023.67 1023.74 1023.80 1024.06 1023.89 1023.98 1023.87 1024.00 1024.20 1024.34 1024.39 1024.44 1023.95 1024.05 1024.24 1024.29 1024.32 1024.50 1024.04 1022.43 1020.81 1018.36 1016.98 1016.06 1016.03 1015.73 1015.73 1015.65 1015.20 1014.74
1024.75 1024.32 1024.39 1023.94 1023.50 1022.98 1022.50 1021.75 1021.03 1020.34 1019.93 1020.61 1022.29 1023.04 1022.86 1023.01 1024.57 1024.63 1024.93 1025.22 1025.06 1025.05 1025.20 1025.24 1025.43 1025.38 1025.56 1025.62 1025.46 1025.19 1025.11 1024.91 1024.95 1024.79 1024.39 1024.30 1023.34 1023.01 1021.36 1020.10 1020.16 1019.21 1017.72 1017.53 1016.97 1015.96 1015.45
1024.75 1024.53 1024.67 1024.12 1023.70 1023.37 1022.60 1021.96 1021.38 1020.61 1020.27 1021.12 1023.65 1025.45 1025.70 1025.95 1026.21 1025.99 1025.94 1026.28 1026.22 1026.26 1026.19 1026.17 1026.52 1026.90 1027.09 1026.92 1026.57 1026.15 1026.02 1025.76 1025.47 1024.97 1024.93 1025.42 1024.46 1023.97 1022.73 1021.88 1021.34 1020.16 1019.10 1018.05 1017.52 1017.07 1016.31
1024.76 1024.62 1024.75 1024.54 1024.18 1023.72 1023.19 1022.41 1021.58 1021.03 1020.84 1022.53 1024.56 1025.54 1026.30 1026.68 1026.72 1026.74 1026.96 1027.37 1027.22 1027.19 1027.12 1026.95 1027.26 1027.48 1027.45 1027.50 1027.32 1027.08 1026.90 1026.84 1026.23 1025.63 1025.65 1025.57 1024.84 1024.14 1023.02 1021.68 1021.00 1020.13 1019.28 1018.34 1017.74 1017.52 1017.95
1024.75 1024.78 1024.91 1024.76 1024.44 1024.21 1023.93 1023.26 1022.38 1021.53 1021.12 1023.56 1025.20 1025.53 1025.57 1027.38 1027.40 1027.47 1027.88 1027.87 1027.87 1027.78 1027.44 1027.35 1027.59 1027.74 1027.53 1027.27 1027.31 1026.88 1026.66 1026.19 1026.38 1026.54 1026.20 1026.09 1025.20 1024.46 1022.83 1021.55 1021.27 1021.00 1020.30 1019.08 1019.36 1019.79 1019.45
1025.07 1025.08 1025.03 1025.06 1024.85 1024.82 1024.45 1024.01 1023.58 1023.02 1022.85 1024.06 1025.45 1025.74 1026.27 1027.88 1027.71 1027.86 1028.06 1028.19 1028.32 1028.34 1028.19 1027.75 1027.64 1027.64 1027.37 1027.10 1026.74 1026.03 1026.02 1025.76 1025.79 1025.70 1025.95 1025.86 1025.59 1024.66 1023.41 1022.67 1022.46 1022.43 1022.00 1021.44 1021.68 1022.24 1022.30
1025.17 1025.38 1025.28 1025.37 1025.29 1025.23 1025.01 1024.71 1024.27 1024.23 1024.42 1024.84 1025.57 1025.91 1026.78 1027.81 1027.85 1028.19 1028.24 1028.40 1028.59 1028.74 1028.72 1028.34 1027.83 1027.63 1027.57 1027.54 1027.38 1026.75 1026.11 1025.85 1025.66 1025.70 1025.92 1026.13 1026.00 1025.48 1024.67 1023.88 1023.27 1023.47 1023.30 1023.38 1023.26 1024.41 1024.92
1025.25 1025.42 1025.52 1025.67 1025.75 1025.69 1025.53 1025.33 1025.08 1024.91 1024.95 1025.52 1026.02 1026.12 1026.75 1027.68 1028.27 1027.92 1028.33 1028.67 1029.00 1029.16 1029.17 1028.59 1027.91 1027.68 1027.68 1027.75 1027.69 1027.48 1026.96 1026.68 1026.46 1026.06 1025.68 1025.95 1026.06 1026.57 1025.79 1025.51 1024.72 1026.08 1024.88 1023.81 1023.26 1025.43 1026.47
1025.51 1025.51 1025.71 1026.02 1025.96 1025.96 1025.88 1025.85 1025.76 1025.55 1025.52 1025.88 1026.70 1026.51 1026.86 1028.02 1028.18 1028.11 1028.26 1028.68 1028.98 1029.46 1029.77 1029.23 1028.69 1028.29 1028.10 1028.24 1028.12 1027.78 1027.64 1027.34 1027.34 1027.22 1026.75 1026.74 1026.90 1027.27 1026.98 1026.91 1026.70 1027.37 1026.01 1024.24 1025.76 1028.28 1027.58
1025.72 1025.69 1026.01 1026.18 1026.26 1026.38 1026.32 1026.25 1026.19 1026.06 1025.94 1026.15 1027.09 1026.98 1027.26 1028.11 1028.22 1028.11 1028.12 1028.37 1028.80 1029.21 1029.72 1029.44 1029.56 1029.25 1029.07 1028.96 1028.67 1028.27 1028.14 1027.65 1027.78 1027.57 1027.65 1028.29 1028.82 1028.52 1028.24 1028.17 1028.40 1028.37 1027.10 1027.98 1029.82 1029.07 1028.82
1025.78 1025.96 1026.21 1026.35 1026.58 1026.64 1026.52 1026.56 1026.39 1026.18 1026.26 1026.32 1027.37 1027.32 1027.15 1027.64 1028.27 1028.14 1027.96 1027.88 1027.94 1028.37 1029.01 1029.50 1029.77 1029.49 1029.05 1029.20 1028.96 1028.42 1028.31 1028.00 1028.05 1028.45 1028.49 1029.68 1030.56 1030.29 1030.15 1029.90 1030.20 1030.04 1030.14 1030.40 1030.43 1030.06 1029.33
Wind_Speed
12 11 10 10 11 12 13 14 14 15 16 16 17 17 18 18 18 18 17 16 16 14 13 10 8 7 2 2 3 4 3 6 3 3 4 2 3 2 2 1 2 1 3 3 5 5 5
9 8 10 10 12 13 13 14 15 16 16 17 17 18 19 19 19 18 18 18 16 15 11 7 5 6 1 0 3 2 3 4 5 4 3 5 2 1 3 0 1 2 4 7 7 4 4
8 9 9 11 11 12 13 15 15 16 17 17 18 18 19 19 19 19 18 18 18 14 8 4 2 0 3 2 3 1 3 1 2 2 2 2 1 2 3 1 2 2 6 7 5 3 6
7 7 9 10 11 12 14 15 16 17 17 18 19 19 20 20 19 19 18 18 17 7 3 1 1 1 2 2 1 1 1 2 3 3 4 2 3 4 2 2 4 3 3 5 1 3 2
6 7 9 10 12 13 14 15 16 17 18 19 20 21 21 20 19 18 18 17 6 1 1 1 1 2 1 1 0 1 1 2 2 2 4 2 3 3 3 4 4 5 3 3 10 6 2
5 7 9 10 12 13 14 15 16 17 19 20 21 22 21 20 19 18 18 8 2 2 1 0 1 2 2 0 0 2 1 3 2 1 3 4 5 3 3 4 5 4 3 4 6 1 0
5 7 9 10 11 13 14 16 17 18 19 20 21 22 20 19 18 16 7 3 6 3 6 0 1 3 2 3 1 3 1 3 2 5 1 3 2 7 8 7 2 1 3 5 6 4 3
5 7 8 10 12 13 15 16 17 18 20 21 22 21 19 17 16 13 3 6 2 3 7 2 2 4 4 2 3 1 1 2 2 1 1 4 7 4 3 3 5 3 2 8 6 3 6
6 7 9 10 12 14 16 16 17 18 20 21 21 19 18 19 9 6 6 4 4 2 1 6 1 2 2 1 0 2 3 2 1 1 3 5 2 2 2 3 3 4 6 5 8 3 4
5 7 9 12 14 14 16 18 18 19 20 20 20 17 17 19 7 2 3 6 4 3 6 6 4 2 2 2 2 1 3 2 1 2 2 6 4 3 1 4 6 3 10 6 3 3 5
5 7 10 12 13 15 17 18 19 20 20 20 18 15 12 11 3 4 4 6 4 2 6 3 3 2 1 2 3 2 1 2 3 1 3 9 3 2 3 8 7 9 4 4 3 4 2
5 8 10 11 14 16 18 19 19 20 20 20 17 15 7 4 3 1 5 4 3 9 5 4 3 4 5 1 1 2 2 2 1 2 3 8 3 4 8 5 9 1 1 5 5 3 2
6 8 10 13 15 17 18 19 20 20 20 20 15 11 5 1 2 5 4 3 8 6 5 5 4 5 2 4 3 2 3 5 1 7 3 5 6 4 3 2 1 2 5 4 4 1 8
6 7 10 13 16 17 18 19 21 21 20 19 12 5 4 2 4 4 3 7 4 3 2 3 4 6 2 6 4 5 3 4 4 1 3 3 10 5 3 5 4 6 8 7 6 4 9
3 7 10 13 15 18 19 20 21 21 20 16 4 3 3 5 4 2 6 6 4 2 2 6 6 3 4 3 4 6 2 4 5 7 3 4 8 3 4 3 6 3 5 6 4 1 2
4 8 11 13 15 18 20 21 22 22 20 11 3 2 3 7 4 5 7 3 1 2 4 2 2 3 2 6 6 6 1 6 8 6 4 6 10 5 3 1 5 6 3 0 1 4 9
6 8 11 13 16 18 21 23 24 21 19 5 4 4 4 8 3 7 5 1 2 4 6 5 3 5 3 4 5 4 4 5 7 11 8 7 2 11 4 5 10 3 4 4 3 5 10
6 8 10 14 16 19 21 23 25 21 16 7 3 3 4 4 6 2 3 3 7 7 9 6 3 4 3 5 3 3 4 5 8 7 8 4 5 7 12 15 11 6 7 6 6 6 4
7 8 10 14 16 18 21 23 24 21 12 3 3 1 4 4 4 2 3 4 4 7 6 7 6 6 4 2 3 3 4 6 13 10 10 7 4 8 9 9 5 3 4 3 2 2 6
7 9 10 13 16 19 21 23 25 20 11 5 4 2 6 6 2 5 3 3 3 6 4 4 4 5 5 5 4 5 6 5 13 6 20 4 5 10 14 16 14 17 24 16 12 4 3
8 9 9 13 16 18 22 24 25 21 9 5 5 1 1 3 5 5 4 3 3 5 4 7 3 6 4 4 4 4 4 10 3 12 3 7 10 11 17 19 19 21 20 22 19 15 9
8 10 11 13 15 18 20 23 26 24 5 7 5 4 3 2 2 4 5 2 2 4 3 3 4 5 2 4 5 10 5 4 6 4 2 2 11 15 22 25 21 21 21 18 16 12 7
10 11 11 13 15 16 18 20 24 27 8 5 1 2 4 3 2 3 1 1 3 2 1 1 1 1 4 5 4 11 9 13 11 8 3 3 3 6 8 13 12 11 8 5 7 6 3
10 10 11 12 13 15 16 18 20 24 13 4 1 3 4 2 3 3 2 1 1 1 2 4 3 2 3 6 7 7 7 10 8 8 8 4 3 5 6 4 2 4 10 8 15 16 17
11 9 10 12 12 13 14 16 18 17 16 5 1 4 3 4 3 3 3 2 3 4 1 3 3 2 5 4 4 6 5 4 0 4 6 5 3 5 6 8 2 7 11 9 8 8 15
11 9 8 10 10 10 12 13 13 15 12 5 3 2 4 6 3 4 3 1 1 3 5 3 4 4 3 1 2 2 2 3 4 8 4 3 3 1 3 6 6 3 17 20 11 4 15
10 9 9 8 8 9 9 11 11 10 10 5 3 3 5 4 1 3 2 3 4 2 2 4 6 5 2 2 2 1 3 2 2 3 4 5 3 2 5 4 2 10 20 16 6 7 18
9 9 8 7 7 7 9 9 9 7 5 4 1 4 4 3 3 2 1 4 2 1 2 4 4 2 3 1 1 2 1 3 1 4 4 1 3 3 4 3 4 17 8 8 6 12 15
9 8 7 6 6 5 6 7 8 10 6 5 3 2 1 2 5 1 3 3 5 6 3 1 3 2 3 1 2 2 3 2 4 2 5 1 4 4 3 3 5 3 7 7 8 11 12
Wind_Direction
54 47 35 25 15 13 7 5 1 355 353 352 348 345 343 341 339 337 335 330 328 326 325 323 313 323 341 19 307 333 49 352 6 35 50 68 82 128 179 209 339 199 318 304 298 297 264
51 36 24 20 12 9 5 4 0 355 352 349 346 344 341 338 336 333 331 328 324 321 317 322 313 318 105 327 286 88 7 360 26 39 27 37 70 91 90 106 165 321 288 275 280 268 232
48 31 22 17 12 8 4 3 358 353 350 347 345 341 338 336 333 331 329 324 320 316 308 318 287 343 70 232 340 91 46 56 25 77 78 25 61 98 147 158 324 324 328 314 222 222 230
30 25 18 16 12 7 3 1 356 351 348 346 343 339 336 334 331 330 327 323 321 318 313 197 173 17 214 335 158 105 39 39 52 49 100 108 75 101 54 325 17 15 53 354 316 161 202
19 21 22 13 11 7 3 359 354 350 347 345 342 338 335 332 329 327 325 322 323 52 88 124 5 113 335 357 126 287 144 129 86 46 29 92 69 97 39 84 2 8 244 225 313 203 138
24 24 19 14 11 6 1 358 354 349 347 345 341 336 333 330 327 327 324 313 328 96 39 268 121 29 333 216 179 95 353 124 96 59 29 43 45 76 45 94 230 249 244 241 250 327 211
32 22 15 13 10 5 0 357 353 348 345 342 339 335 332 330 329 330 346 25 17 346 34 85 275 253 347 313 17 40 53 87 43 44 327 4 34 219 215 205 176 185 207 253 256 251 236
43 24 17 8 6 2 359 354 350 348 346 342 339 336 335 333 329 337 67 73 75 216 318 3 266 286 245 286 359 58 61 99 65 284 344 1 245 233 189 182 203 184 254 260 282 248 184
35 23 11 6 3 1 356 353 351 349 346 343 340 336 335 335 330 34 77 71 311 159 85 311 276 5 336 125 250 330 129 96 155 237 209 201 247 73 152 238 196 187 207 227 236 340 252
52 21 9 5 2 359 357 353 351 348 346 344 340 336 339 333 54 310 60 327 336 185 64 314 350 1 12 55 39 347 179 119 231 245 198 236 298 275 247 264 169 248 224 239 265 66 260
42 19 15 3 0 359 357 353 350 347 345 346 342 339 350 28 147 50 305 320 300 60 33 311 358 287 17 73 294 9 341 40 240 238 102 254 260 252 223 221 166 237 150 187 182 182 358
43 20 9 7 2 360 356 352 349 347 346 346 343 342 5 21 46 99 316 319 51 44 266 354 334 357 11 2 359 3 33 11 224 294 233 243 308 250 221 220 193 115 106 55 48 102 260
51 30 11 6 3 359 356 354 351 349 347 345 343 341 26 34 320 328 326 52 38 118 291 331 328 360 353 305 360 36 11 335 258 345 326 322 235 256 195 235 124 132 70 323 329 6 231
35 36 21 10 1 0 357 356 353 349 348 343 339 13 355 74 317 341 45 49 82 282 348 340 321 320 351 13 10 351 6 319 27 8 315 258 320 191 180 213 202 184 168 169 221 237 280
64 34 23 16 6 1 358 356 354 350 347 343 355 3 38 326 339 51 72 61 198 194 274 332 322 15 331 10 23 25 30 348 29 3 284 309 266 310 230 229 155 199 186 196 196 151 80
35 36 27 18 10 6 0 356 356 350 349 353 73 50 316 327 11 62 72 142 118 22 343 355 278 40 295 323 356 19 312 351 338 11 338 299 297 218 326 334 256 183 194 149 351 229 253
52 29 32 21 14 7 5 359 357 352 351 356 54 58 272 338 68 49 103 148 65 45 18 7 338 324 3 347 340 303 306 22 358 337 37 4 289 286 340 219 261 301 259 236 188 180 251
62 36 30 26 18 10 8 3 356 355 353 44 86 41 319 359 50 32 77 4 8 0 13 4 71 62 15 4 313 277 360 86 16 9 17 320 289 273 269 280 269 217 243 207 222 258 233
79 49 31 30 21 13 9 6 1 359 17 99 79 304 329 50 97 38 0 52 68 16 27 15 26 49 1 352 319 310 355 172 29 29 13 337 308 309 295 312 14 341 12 34 317 254 230
75 60 36 31 24 15 10 7 6 2 14 78 77 38 349 40 38 102 81 23 46 19 60 31 30 59 24 1 11 307 323 345 345 349 320 310 235 258 282 293 318 300 306 316 302 232 253
87 65 42 35 29 20 13 9 7 5 16 88 27 102 198 24 29 72 77 29 34 8 18 20 76 59 3 305 291 243 321 325 317 298 29 341 279 295 290 295 301 293 290 295 284 290 270
96 67 46 38 33 28 20 10 8 11 47 80 109 126 32 83 38 64 13 39 77 332 333 17 36 336 257 240 237 299 270 231 247 296 314 264 283 286 280 277 270 282 287 279 273 281 287
94 75 57 45 38 35 29 22 14 16 56 84 6 43 101 338 79 100 88 129 98 272 243 102 298 286 287 266 275 273 253 270 256 287 304 238 255 289 268 293 288 276 337 283 93 16 307
96 80 68 54 47 39 36 34 28 29 46 98 125 103 83 85 81 100 117 105 42 329 273 311 347 184 266 329 290 276 249 253 264 254 201 228 235 250 286 316 272 71 9 14 65 34 25
102 90 73 60 53 48 47 43 35 35 47 71 60 86 97 106 106 120 123 112 309 322 284 268 267 234 318 314 329 326 337 3 307 212 209 229 281 302 320 308 225 3 348 347 350 61 25
109 94 77 70 63 50 47 44 42 34 34 70 41 88 91 115 231 114 116 101 25 348 340 265 307 317 360 313 318 276 291 305 324 328 229 270 178 177 314 336 345 346 318 317 296 128 11
117 97 84 75 63 47 51 52 44 44 40 77 38 34 73 95 246 116 139 152 123 79 275 309 327 343 358 18 283 295 286 246 292 291 305 315 344 217 300 269 132 345 320 309 51 326 333
112 98 89 82 63 46 41 47 47 46 44 71 56 24 96 103 294 157 163 130 105 128 196 276 3 339 355 7 261 299 209 261 279 249 291 309 316 312 314 323 294 359 10 45 316 316 325
118 106 95 84 78 56 35 37 29 38 83 76 54 353 99 70 221 214 226 217 191 207 150 303 202 237 234 23 253 288 281 298 222 272 19 89 355 300 358 349 27 9 70 355 344 315 321